[[{"header":{"parameterUnit":"m.s-1","parameterCategory":1,"la1":30.2991,"la2":30.254,"lo1":-89.0895,"lo2":-89.0444,"dy":0.0017,"dx":0.0017,"nx":28,"ny":28,"refTime":"2025-08-10T03:00:00:Z","depth":0,"parameterNumber":2,"parameterNumberName":"U-component_of_WINDS"},"data":[0,0,0,0,0,0,0,0,0,0,0,0,0,0,0,0,0,0,0,0,0,0,0,0,0,0,0,0,0,0,0,0,0,0,0,0,0,0,0,0,0,0,0,0,0,0,0,0,0,0,0,0,0,0,0,0,0,0,-3.9078,-3.908,0,-3.9202,-3.9203,-3.9205,-3.9108,-3.9104,-3.91,-3.9096,-3.9224,-3.9231,-3.9238,0,0,0,0,0,0,0,0,0,0,0,0,0,-3.876,-3.8766,-3.9078,-3.908,-3.9081,-3.9202,-3.9203,-3.9205,-3.9109,-3.9104,-3.9099,-3.9094,-3.9222,-3.923,-3.9239,0,0,0,0,0,0,0,0,0,0,0,0,0,-3.8893,-3.8768,-3.9078,-3.9048,-3.9046,-3.9201,-3.9204,-3.9206,-3.911,-3.9104,-3.9097,-3.9091,-3.9219,-3.923,-3.924,-3.9433,0,0,-3.9274,-3.9278,0,0,0,0,0,0,0,0,-3.8885,-3.8904,-3.9051,-3.905,-3.9049,-3.9133,-3.9138,-3.9282,-3.9111,-3.9086,-3.9096,-3.9088,-3.9199,-3.9211,-3.9248,-3.9439,-3.9444,-3.9275,-3.9281,-3.9286,-3.9289,0,0,0,0,0,0,0,-3.8876,-3.8898,-3.9127,-3.9053,-3.9052,-3.9028,-3.904,-3.9165,-3.9176,-3.9087,-3.9081,-3.9097,-3.9197,-3.9238,-3.925,-3.9446,-3.9274,-3.9284,-3.9291,-3.9295,-3.98,-3.9807,0,0,0,0,0,0,-3.887,-3.8891,-3.9123,-3.9131,-3.895,-3.9039,-3.9052,-3.9112,-3.9174,-3.9178,-3.9102,-3.9092,-3.9222,-3.9238,-3.9255,-3.9484,-3.9286,-3.9296,-3.9302,-3.9794,-3.9802,-3.9809,0,0,0,0,0,0,-3.8863,-3.8891,-3.9118,-3.9009,-3.9037,-3.9051,-3.9119,-3.9118,-3.9158,-3.9185,-3.9187,-3.9141,-3.9218,-3.9239,-3.9389,-3.9487,-3.9301,-3.9311,-3.9785,-3.9796,-3.9806,-3.9944,0,0,0,0,0,0,-3.8854,-3.889,-3.8963,-3.9012,-3.9043,-3.9251,-3.9125,-3.9125,-3.9177,-3.9165,-3.9222,-3.9226,-3.9215,-3.9373,-3.94,-3.9499,-3.932,-3.9777,-3.979,-3.9802,-3.9931,-3.9958,-3.9981,0,0,0,0,0,-3.8843,-3.8997,-3.8967,-3.8995,-3.9134,-3.9257,-3.9274,-3.9258,-3.9186,-3.9259,-3.9276,-3.9224,-3.9472,-3.9389,-3.9418,-3.9522,-3.977,-3.9786,-3.9801,-3.992,-3.9953,-3.9981,0,0,0,0,0,0,-3.896,-3.9003,-3.897,-3.9144,-3.9197,-3.924,-3.9332,-3.9293,-3.9369,-3.9354,-3.9331,-3.9345,-3.9502,-3.9527,-3.9434,-3.9712,-3.961,-3.9632,-3.969,-3.9721,-3.9746,-3.9737,-3.9329,0,0,0,0,0,-3.9005,-3.9101,-3.9133,-3.9284,-3.9312,-3.9318,-3.9371,-3.9353,-3.9408,-3.943,-3.9458,-3.9513,-3.9603,-3.9664,-3.9748,-3.9934,-3.9945,-4.002,-4.0045,-4.0065,-4.0085,-4.0185,-4.0219,-3.986,-3.986,-3.986,0,0,-3.9101,-3.9136,-3.9198,-3.9308,-3.9347,-3.9447,-3.9338,-3.9448,-3.9522,-3.9447,-3.959,-3.9613,-3.9673,-3.9842,-3.9917,-3.9867,-4.0186,-4.0085,-4.0101,-4.011,-4.0205,-4.0239,-4.0269,-3.987,-3.9869,-3.9867,0,0,-3.9327,-3.9363,-3.9492,-3.9534,-3.9594,-3.9597,-3.9628,-3.9677,-3.9689,-3.9832,-3.9778,-3.9865,-4.0021,-4.0067,-4.011,-4.0353,-4.0308,-4.0381,-4.0512,-4.061,-4.0639,-4.0664,-4.0751,-4.0782,-4.04,-4.04,-4.0401,0,-3.9438,-3.9586,-3.9564,-3.9678,-3.9728,-3.9664,-3.9795,-3.9837,-3.9922,-3.9959,-3.9901,-4.0095,-4.0131,-4.031,-4.0369,-4.0406,-4.0441,-4.0375,-4.0636,-4.0661,-4.0684,-4.0767,-4.08,-4.0409,-4.0408,-4.0407,-4.0406,0,-3.972,-3.9824,-3.9921,-4.0004,-4.0065,-4.0188,-4.0184,-4.0249,-4.0226,-4.0235,-4.0382,-4.0422,-4.0514,-4.0555,-4.0534,-4.0731,-4.0698,-4.0639,-4.0536,-4.0727,-4.0805,-4.0836,-4.0421,-4.0418,-4.0415,-4.0413,0,0,-4.0024,-4.0093,-4.0129,-4.0166,-4.0228,-4.0308,-4.0427,-4.0516,-4.0572,-4.0633,-4.0733,-4.0866,-4.0812,-4.0861,-4.0844,-4.0931,-4.1121,-4.0861,-4.0862,-4.0908,-4.1341,-4.1386,-4.1423,-4.1091,-4.1097,-4.1102,-4.1337,0,-4.0252,-4.046,-4.0443,-4.0639,-4.0735,-4.0675,-4.0779,-4.0829,-4.084,-4.0923,-4.0935,-4.1031,-4.0951,-4.0981,-4.1063,-4.108,-4.1208,-4.1063,-4.1185,-4.1189,-4.1172,-4.1464,-4.1512,-4.1732,-4.1367,-4.1372,-4.1375,0,-4.0547,-4.0618,-4.0824,-4.0871,-4.0911,-4.1004,-4.1085,-4.1164,-4.122,-4.1222,-4.1277,-4.1246,-4.1367,-4.1261,-4.1427,-4.1329,-4.1378,-4.1394,-4.1402,-4.1413,-4.1295,-4.1484,-4.1801,-4.1835,-4.1423,-4.1419,-4.1416,0,-4.0749,-4.0895,-4.1037,-4.1071,-4.113,-4.1197,-4.1225,-4.1274,-4.1328,-4.1399,-4.1434,-4.1518,-4.1564,-4.163,-4.1622,-4.1546,-4.1792,-4.1685,-4.1798,-4.1799,-4.1854,-4.1851,-4.2184,-4.1884,-4.1883,-4.1883,-4.1882,0,-4.1007,-4.1135,-4.1129,-4.1216,-4.1358,-4.1338,-4.1479,-4.1499,-4.1543,-4.1634,-4.1587,-4.1674,-4.1658,-4.1744,-4.1739,-4.1878,-4.1899,-4.1905,-4.1903,-4.191,-4.191,-4.1942,-4.1927,-4.1891,-4.189,-4.1888,-4.1886,0,-4.1256,-4.1257,-4.1408,-4.1451,-4.1465,-4.1568,-4.1605,-4.1688,-4.1695,-4.181,-4.1836,-4.1848,-4.1947,-4.1946,-4.2059,-4.2056,-4.2227,-4.2206,-4.2208,-4.2204,-4.2318,-4.2307,-4.2685,-4.2733,-4.2401,-4.2404,-4.2407,0,-4.1421,-4.1519,-4.1572,-4.1629,-4.1661,-4.1753,-4.1809,-4.1792,-4.1852,-4.1922,-4.1997,-4.2092,-4.2167,-4.2328,-4.2347,-4.2434,-4.2415,-4.2541,-4.2428,-4.2433,-4.2418,-4.2413,-4.2423,-4.2564,-4.2568,-4.2571,-4.2573,0,-4.1714,-4.171,-4.1791,-4.1873,-4.194,-4.2004,-4.2062,-4.2112,-4.2102,-4.2172,-4.2272,-4.233,-4.2446,-4.2541,-4.2624,-4.2653,-4.2613,-4.2609,-4.264,-4.2649,-4.2646,-4.265,-4.227,-4.26,-4.2598,-4.2596,-4.2594,-4.2593,-4.1927,-4.2011,-4.2061,-4.2153,-4.2196,-4.2251,-4.2332,-4.2349,-4.2432,-4.2524,-4.2509,-4.2622,-4.2675,-4.2782,-4.2818,-4.2907,-4.2862,-4.2907,-4.2918,-4.293,-4.2943,-4.2632,-4.2922,-4.2921,-4.292,-4.292,-4.2919,0,-4.2218,-4.2247,-4.2332,-4.2415,-4.2488,-4.2442,-4.2505,-4.2569,-4.2669,-4.2721,-4.2795,-4.2911,-4.3003,-4.3029,-4.3118,-4.3184,-4.3167,-4.3208,-4.3203,-4.321,-4.2977,-4.2942,-4.3219,-4.3219,-4.3219,-4.3219,-4.3219,-4.3219,-4.2378,-4.2517,-4.2519,-4.2679,-4.2707,-4.2817,-4.2856,-4.2908,-4.2949,-4.3081,-4.3156,-4.3172,-4.3215,-4.3306,-4.3388,-4.3394,-4.3429,-4.3477,-4.3475,-4.3257,-4.3227,-4.3198,-4.3165,-4.3485,-4.3485,-4.3701,-4.3703,-4.3705]},{"header":{"parameterUnit":"m.s-1","parameterCategory":1,"la1":30.2991,"la2":30.254,"lo1":-89.0895,"lo2":-89.0444,"dy":0.0017,"dx":0.0017,"nx":28,"ny":28,"refTime":"2025-08-10T03:00:00:Z","depth":0,"parameterNumber":3,"parameterNumberName":"V-component_of_WINDS"},"data":[0,0,0,0,0,0,0,0,0,0,0,0,0,0,0,0,0,0,0,0,0,0,0,0,0,0,0,0,0,0,0,0,0,0,0,0,0,0,0,0,0,0,0,0,0,0,0,0,0,0,0,0,0,0,0,0,0,0,-2.0565,-2.0564,0,-2.0542,-2.0542,-2.0542,-2.0522,-2.0522,-2.0522,-2.0521,-2.0499,-2.0499,-2.0498,0,0,0,0,0,0,0,0,0,0,0,0,0,-2.059,-2.059,-2.0565,-2.0564,-2.0564,-2.0542,-2.0542,-2.0542,-2.0522,-2.0522,-2.0522,-2.0521,-2.0499,-2.0499,-2.0498,0,0,0,0,0,0,0,0,0,0,0,0,0,-2.0575,-2.059,-2.0565,-2.0552,-2.055,-2.0542,-2.0542,-2.0541,-2.0522,-2.0522,-2.0521,-2.0521,-2.0499,-2.0499,-2.0498,-2.0501,0,0,-2.0496,-2.0496,0,0,0,0,0,0,0,0,-2.0576,-2.0574,-2.0554,-2.0553,-2.0551,-2.0535,-2.0543,-2.0528,-2.0522,-2.0533,-2.0521,-2.0521,-2.0511,-2.0509,-2.0506,-2.05,-2.0499,-2.0496,-2.0496,-2.0496,-2.0495,0,0,0,0,0,0,0,-2.0577,-2.0575,-2.0556,-2.0554,-2.0552,-2.0547,-2.0544,-2.054,-2.0524,-2.0532,-2.053,-2.0528,-2.051,-2.0507,-2.0505,-2.0499,-2.0496,-2.0496,-2.0495,-2.0495,-2.0493,-2.0493,0,0,0,0,0,0,-2.058,-2.0576,-2.0556,-2.0555,-2.0563,-2.0547,-2.0544,-2.054,-2.0524,-2.0521,-2.0528,-2.0527,-2.0508,-2.0506,-2.0504,-2.0506,-2.0496,-2.0495,-2.0495,-2.0493,-2.0493,-2.0493,0,0,0,0,0,0,-2.058,-2.0578,-2.0557,-2.0565,-2.0562,-2.0547,-2.0543,-2.054,-2.0536,-2.0521,-2.0519,-2.0528,-2.0507,-2.0505,-2.0502,-2.0505,-2.0495,-2.0494,-2.0492,-2.0493,-2.0493,-2.051,0,0,0,0,0,0,-2.0581,-2.0579,-2.058,-2.0565,-2.0562,-2.0555,-2.0543,-2.054,-2.0535,-2.0534,-2.052,-2.0517,-2.0507,-2.0503,-2.0501,-2.0504,-2.0494,-2.0492,-2.0492,-2.0493,-2.0509,-2.0511,-2.0512,0,0,0,0,0,-2.0582,-2.0586,-2.058,-2.0578,-2.0563,-2.0555,-2.0553,-2.0541,-2.0536,-2.0536,-2.0527,-2.0518,-2.0505,-2.0503,-2.0501,-2.0503,-2.0492,-2.0492,-2.0493,-2.0508,-2.051,-2.0512,0,0,0,0,0,0,-2.0602,-2.0584,-2.0577,-2.0576,-2.0567,-2.0552,-2.0553,-2.0544,-2.0537,-2.0536,-2.0521,-2.0519,-2.0516,-2.051,-2.0507,-2.0505,-2.0497,-2.0497,-2.0509,-2.0511,-2.0513,-2.0514,-2.0493,0,0,0,0,0,-2.0606,-2.0601,-2.0586,-2.0587,-2.0582,-2.0568,-2.0565,-2.0556,-2.0547,-2.0543,-2.0533,-2.0524,-2.0518,-2.0514,-2.0508,-2.0508,-2.0504,-2.0509,-2.0511,-2.0512,-2.0512,-2.051,-2.0512,-2.0495,-2.0495,-2.0495,0,0,-2.0614,-2.0604,-2.0602,-2.059,-2.0582,-2.0578,-2.0566,-2.0562,-2.0558,-2.0542,-2.0538,-2.0531,-2.052,-2.0517,-2.0516,-2.0512,-2.0516,-2.0513,-2.0514,-2.0513,-2.0511,-2.0513,-2.0514,-2.0496,-2.0496,-2.0496,0,0,-2.0627,-2.062,-2.0618,-2.0611,-2.0599,-2.0589,-2.0589,-2.0575,-2.0569,-2.0565,-2.0553,-2.0548,-2.0538,-2.053,-2.0525,-2.0534,-2.0525,-2.0533,-2.0542,-2.054,-2.0541,-2.0542,-2.0545,-2.0546,-2.0533,-2.0533,-2.0533,0,-2.0639,-2.0632,-2.0619,-2.0615,-2.061,-2.0595,-2.0594,-2.0587,-2.0574,-2.057,-2.0566,-2.0552,-2.0544,-2.0539,-2.0541,-2.0538,-2.0537,-2.0534,-2.0542,-2.0543,-2.0544,-2.0546,-2.0547,-2.0534,-2.0534,-2.0534,-2.0534,0,-2.0647,-2.0642,-2.0642,-2.0629,-2.0624,-2.0622,-2.0608,-2.0604,-2.0596,-2.0587,-2.0582,-2.0571,-2.0562,-2.056,-2.0552,-2.0554,-2.0552,-2.0545,-2.0537,-2.0547,-2.0548,-2.0549,-2.0535,-2.0535,-2.0535,-2.0535,0,0,-2.0671,-2.0651,-2.0651,-2.0644,-2.063,-2.0626,-2.0622,-2.0613,-2.0609,-2.0601,-2.0597,-2.0588,-2.0582,-2.0576,-2.0567,-2.0566,-2.0572,-2.0559,-2.0558,-2.0561,-2.0572,-2.0576,-2.0578,-2.0566,-2.0566,-2.0566,-2.0572,0,-2.0681,-2.0674,-2.0661,-2.0658,-2.0652,-2.0638,-2.0635,-2.0626,-2.0617,-2.0611,-2.0602,-2.0595,-2.0588,-2.0584,-2.0582,-2.0572,-2.0574,-2.0571,-2.0562,-2.0562,-2.0564,-2.0579,-2.0584,-2.059,-2.0573,-2.0573,-2.0573,0,-2.0692,-2.0683,-2.0679,-2.0664,-2.0661,-2.0658,-2.0648,-2.0643,-2.0632,-2.0625,-2.0618,-2.0608,-2.0603,-2.0596,-2.0589,-2.0587,-2.0583,-2.0577,-2.0577,-2.0575,-2.0568,-2.0576,-2.0592,-2.0592,-2.0574,-2.0574,-2.0574,0,-2.0708,-2.0696,-2.0691,-2.0686,-2.0669,-2.0667,-2.066,-2.0649,-2.0643,-2.0634,-2.0631,-2.0622,-2.0616,-2.0609,-2.0597,-2.0593,-2.0591,-2.0583,-2.0585,-2.0585,-2.0584,-2.0585,-2.0598,-2.0583,-2.0583,-2.0583,-2.0583,0,-2.072,-2.0718,-2.0699,-2.0696,-2.0692,-2.0678,-2.0676,-2.0667,-2.0657,-2.0652,-2.0639,-2.0635,-2.0619,-2.0613,-2.0603,-2.0598,-2.0596,-2.0591,-2.0588,-2.0591,-2.0592,-2.0588,-2.0587,-2.0583,-2.0583,-2.0583,-2.0583,0,-2.0738,-2.0725,-2.0719,-2.0703,-2.0699,-2.0697,-2.0683,-2.068,-2.067,-2.0664,-2.0662,-2.0647,-2.0638,-2.0625,-2.0614,-2.0607,-2.0603,-2.0599,-2.0607,-2.0605,-2.0607,-2.0607,-2.0618,-2.0619,-2.0604,-2.0604,-2.0604,0,-2.0746,-2.0743,-2.0727,-2.0722,-2.0715,-2.0709,-2.0703,-2.0689,-2.0684,-2.067,-2.0668,-2.0659,-2.0651,-2.0638,-2.0626,-2.0617,-2.0612,-2.0617,-2.061,-2.0614,-2.0611,-2.0611,-2.061,-2.0618,-2.0618,-2.0618,-2.0618,0,-2.0761,-2.0754,-2.0746,-2.0736,-2.0729,-2.0721,-2.0712,-2.0709,-2.0693,-2.0687,-2.0678,-2.0672,-2.0659,-2.065,-2.0639,-2.0631,-2.0622,-2.0621,-2.062,-2.0623,-2.0627,-2.0624,-2.061,-2.062,-2.062,-2.062,-2.062,-2.062,-2.0773,-2.077,-2.0757,-2.0749,-2.074,-2.0732,-2.0727,-2.0717,-2.0709,-2.0698,-2.069,-2.0681,-2.067,-2.0653,-2.0646,-2.0639,-2.0635,-2.0635,-2.0635,-2.0635,-2.0636,-2.0629,-2.0637,-2.0637,-2.0637,-2.0637,-2.0637,0,-2.0786,-2.0777,-2.077,-2.0757,-2.075,-2.0742,-2.0731,-2.0725,-2.0718,-2.0708,-2.07,-2.0689,-2.068,-2.0667,-2.0656,-2.0653,-2.0649,-2.0651,-2.0651,-2.0649,-2.064,-2.0641,-2.0655,-2.0655,-2.0655,-2.0655,-2.0655,-2.0655,-2.0792,-2.0786,-2.0778,-2.0767,-2.0759,-2.075,-2.0744,-2.0736,-2.0728,-2.0716,-2.0708,-2.07,-2.0688,-2.0677,-2.0668,-2.0664,-2.0661,-2.0664,-2.0659,-2.0651,-2.065,-2.0648,-2.0649,-2.0664,-2.0664,-2.0668,-2.0668,-2.0668]}]]